{"data":{"norad_id":48653,"epoch":"2026-09-19T18:37:32.060064Z","epoch_age_seconds":99828,"freshness":"FRESH","line1":"1 48653U 21044R   26262.77606551  .00001185  00000+0  49930-4 0  9995","line2":"2 48653  53.1587 290.6306 0001216  41.6433 318.4661 15.31710056293567","mean_motion":15.31710056,"eccentricity":0.0001216,"inclination_deg":53.1587,"raan_deg":290.6306,"arg_perigee_deg":41.6433,"mean_anomaly_deg":318.4661,"bstar":4.993e-5,"rev_number":29356,"period_min":94.012570744655,"perigee_km":469.87719917941,"apogee_km":471.54283877443,"semimajor_km":6848.8470189769,"source":"CELESTRAK","updated_at":"2026-09-20T09:00:39.141997Z"}}